AirNav   Everest Fuels
 
 1082 users online  

6R5 Alvin Airpark
Alvin, Texas, USA

GOING TO ALVIN?


FAA INFORMATION EFFECTIVE 26 JANUARY 2023

Location

FAA Identifier: 6R5
Lat/Long: 29-24-53.1000N 095-17-20.1000W
29-24.885000N 095-17.335000W
29.4147500,-95.2889167
(estimated)
Elevation: 43 ft. / 13 m (estimated)
Variation: 06E (1985)
From city: 3 miles W of ALVIN, TX
Time zone: UTC -6 (UTC -5 during Daylight Saving Time)
Zip code: 77511

Airport Operations

Airport use: Open to the public
Activation date: 09/1959
Control tower: no
ARTCC: HOUSTON CENTER
FSS: MONTGOMERY COUNTY FLIGHT SERVICE STATION
NOTAMs facility: CXO (NOTAM-D service available)
Attendance: UNATNDD
Wind indicator: yes
Segmented circle: no

Airport Communications

CTAF: 122.9
WX ASOS at LVJ (7 nm N): 118.525 (281-992-1853)
WX AWOS-3 at AXH (11 nm NW): 123.625 (281-431-6572)
WX AWOS-3 at EFD (13 nm NE): 135.575 (713-847-4430)
WX ASOS at HOU (14 nm N): PHONE 713-847-1462
WX AWOS-3PT at T41 (19 nm NE): 120.275 (281-471-2206)

Nearby radio navigation aids

VOR radial/distance  VOR name  Freq  Var
VUHr286/23.7SCHOLES VOR/DME113.0006E
MHFr247/29.4TRINITY VOR/DME113.6007E
IAHr170/32.7HUMBLE VORTAC116.6005E

Airport Services

Parking: hangars and tiedowns

Runway Information

Runway 6/24

Dimensions: 1500 x 80 ft. / 457 x 24 m
Surface: turf, in poor condition
RWY DEFINED BY MOWING. DIFFICULT TO DETERMINE RWY DIMENSIONS. RWY SFC ROUGH & UNEVEN.
RUNWAY 6  RUNWAY 24
Latitude: 29-24.873632N29-24.952375N
Longitude: 095-17.473242W095-17.205188W
Elevation: 41.0 ft.42.0 ft.
Traffic pattern: leftleft
Runway heading: 065 magnetic, 071 true245 magnetic, 251 true
Obstructions: 34 ft. pline, 55 ft. left of centerline50 ft. trees

Runway 3/21

Dimensions: 1420 x 75 ft. / 433 x 23 m
Surface: turf, in poor condition
RWY DEFINED BY MOWING. DIFFICULT TO DETERMINE RWY DIMENSIONS. RWY SFC ROUGH & UNEVEN.
RUNWAY 3  RUNWAY 21
Latitude: 29-24.794085N29-24.972068N
Longitude: 095-17.366012W095-17.191893W
Elevation: 41.0 ft.41.0 ft.
Traffic pattern: leftleft
Runway heading: 035 magnetic, 041 true215 magnetic, 221 true
Obstructions: 30 ft. trees, 35 ft. right of centerline36 ft. trees, 50 ft. left of centerline

Runway 12/30

Dimensions: 830 x 60 ft. / 253 x 18 m
Surface: turf, in poor condition
RWY DEFINED BY MOWING. DIFFICULT TO DETERMINE RWY DIMENSIONS. RWY SFC ROUGH & UNEVEN.
RUNWAY 12  RUNWAY 30
Latitude: 29-24.884553N29-24.794608N
Longitude: 095-17.478783W095-17.360790W
Elevation: 42.0 ft.41.0 ft.
Traffic pattern: leftleft
Runway heading: 125 magnetic, 131 true305 magnetic, 311 true
Obstructions: 34 ft. pline50 ft. trees, 60 ft. right of centerline

Airport Ownership and Management from official FAA records

Ownership: Privately-owned
Owner: RSNMART PROPERTIES, LLC
2102 CHERRY HILL DR
LEAGUE CITY, TX 77573
Phone (713) 208-8707
Manager: RANDY SMART
12357 CR 280
ALVIN, TX 77511
Phone (713) 208-8707

Airport Operational Statistics

Aircraft based on the field: 16
Single engine airplanes: 3
Ultralights: 13
    

Additional Remarks

RWY 03 +6 FT FENCE 40 FT SE OF CNTRLN ALG SOUTHEAST EDGE. +50 FT TREES ALG RWY 03 RIGHT OF CNTRLN.
RWY 21 +6 FT FENCE 20 FT FM THR 0B. +30 FT TREES ALONG RWY 21 LEFT OF CNTRLN.
RADIO CONTROL MODEL ACFT OPERATING AREA ADJACENT TO ARPT, NW
ALL RWYS DEFINED BY MOWING. NO MARKERS. RWY NOT MOWED.
6 FT FENCE ARND ARPT PERIMETER. ALL GATES LOCKED.
FOR CD CTC HOUSTON APCH AT 281-443-5844 TO CNL IFR CALL 281-443-5888.

Instrument Procedures

There are no published instrument procedures at 6R5.

Some nearby airports with instrument procedures:

KLVJ - Pearland Regional Airport (7 nm N)
KAXH - Houston Southwest Airport (11 nm NW)
KEFD - Ellington Airport (13 nm NE)
KHOU - William P Hobby Airport (14 nm N)
T41 - La Porte Municipal Airport (19 nm NE)
 
Loc | Ops | Rwys | IFR | FBO | Links
Com | Nav | Svcs | Stats | Notes
Area around 6R5 (Alvin Airpark)
 
Road maps at: MapQuest Bing Google
 
Aerial photo
WARNING: Photo may not be current or correct
Aerial photo of 6R5 (Alvin Airpark)
Do you have a better or more recent aerial photo of Alvin Airpark that you would like to share? If so, please send us your photo.

 
Sectional chart

 
Airport distance calculator
Flying to Alvin Airpark? Find the distance to fly.

From to 6R5

Sunrise and sunset
Times for 06-Feb-2023
 Local
(UTC-6)
 Zulu
(UTC)
Morning civil twilight06:4412:44
Sunrise07:0813:08
Sunset18:0200:02
Evening civil twilight18:2700:27

Current date and time
Zulu (UTC)  07-Feb-2023 03:32:34
Local (UTC-6)  06-Feb-2023 21:32:34
 
METAR
KAXH 
11nm NW 
070315Z AUTO 13008KT 10SM BKN035 OVC041 18/15 A3001 RMK AO2 T01780145
KEFD 
13nm NE 
070254Z 12007KT 10SM SCT045 17/13 A2999
KHOU 
13nm N 
070253Z 14010KT 10SM BKN040 BKN250 18/13 A3000 RMK AO2 SLP163 T01830128 58002
KT41 
19nm NE 
070315Z AUTO 11009KT 10SM CLR 16/14 A3002 RMK AO2 T01550141
TAF
KEFD 
13nm NE 
062000Z 0620/0802 15015G24KT 9999 BKN035 510043 QNH3003INS BECMG 0623/0624 14009KT 9999 BKN030 QNH2997INS BECMG 0714/0715 14006KT 9000 BR SCT019 QNH3005INS BECMG 0717/0718 14015G20KT 9999 NSW OVC026 510043 QNH3000INS BECMG 0723/0724 12009KT 9999 BKN026 QNH3002INS TX23/0719Z TN16/0710Z
KHOU 
13nm N 
061720Z 0618/0718 16012G19KT P6SM FEW040 SCT250 FM070900 15012KT P6SM BKN030 FM071500 13009KT P6SM BKN035
NOTAMs
Click for the latest NOTAMs
NOTAMs are issued by the DoD/FAA and will open in a separate window not controlled by AirNav.

 

 
 

Would you like to see your business listed on this page?

 If your business provides an interesting product or service to pilots, flight crews, aircraft, or users of the Alvin Airpark, you should consider listing it here.  To start the listing process, click on the button below
 
Add a business
 

Other Pages about Alvin Airpark

Update a link
 
Copyright © AirNav, LLC. All rights reserved. Privacy Policy  Contact